User: anonymous   Login
Location: Theydon Bois
(51.6750°N, 0.1050°E)
Time: 01:38:01
(UTC+01:00)
Language:

H-2A R/B - Orbit

View from above orbital plane
View from above orbital plane
View from above satellite
View from above satellite

Ground track
Ground track

The orbit data is extracted from the following two-line orbital elements,

1 27601U 02056E   17295.60921062 +.00000058 +00000-0 +36543-4 0  9997
2 27601 098.3630 358.9163 0070980 277.6740 245.0565 14.31803931776043
Epoch (UTC): 22 October 2017 14:37:15
Eccentricity: 0.0070980
inclination: 98.3630°
perigee height: 735 km
apogee height: 836 km
right ascension of ascending node: 358.9163°
argument of perigee: 277.6740°
revolutions per day: 14.31803931
mean anomaly at epoch: 245.0565°
orbit number at epoch: 77604

The dashed part of the orbit path shows where the satellite is in the earth's shadow,  

DLR